User: anonymous   Login
Location: Unspecified
(0.0000°N, 0.0000°E)
Time: 07:02:55
(UTC+00:00)
Language:

SMS 1 - Orbit

View from above orbital plane
View from above orbital plane
View from above satellite
View from above satellite

Ground track
Ground track

The orbit data is extracted from the following two-line orbital elements,

1  7298U 74033A   18350.10044274 -.00000201  00000-0  00000+0 0  9995
2  7298  10.9306 298.8078 0021656 351.6077 173.6614  0.98614466 92843
Epoch (UTC): 16 December 2018 02:24:38
Eccentricity: 0.0021656
inclination: 10.9306°
perigee height: 36165 km
apogee height: 36349 km
right ascension of ascending node: 298.8078°
argument of perigee: 351.6077°
revolutions per day: 0.98614466
mean anomaly at epoch: 173.6614°
orbit number at epoch: 9284

The dashed part of the orbit path shows where the satellite is in the earth's shadow,  

DLR